STARLINK-34252, 64330

Orbit data source: Space-Track

STARLINK-34252, 64330 is a payload satellite owned by SpaceX/Seattle (US) in LEO that was launched on Tue, 10 Jun 2025 UTC via an FALCON 9 launch vehicle from the Air Force Eastern Test Range (AFETR). Payload-class satellites include a variety of spacecraft equipped with specific instruments for various scientific and technological missions. These include communications satellites like Starlink; space stations such as the ISS; scientific satellites like the Hubble; Earth observation satellites from companies like Planet Labs, Umbra, and HawkEye 360; GPS; miniature CubeSats for education and research; and military/defense satellites.

Loading next visibility...
Identifier
64330, 2025-124P
Orbit
LEO
Last TLE update
9 hours ago
Origin
Manufacturer
SpaceX/Seattle
Mission
Operational spacecraft
Bus & Motor
STARLINK V2MO, Unknown motor
Mass
575 kg wet, ~530 kg dry
Launch date (UTC)
2025-06-10 (3 weeks ago)
Launch vehicle
FALCON 9
Launch site
Air Force Eastern Test Range (AFETR)
Object type
Payload
Rocket body
Debris
Shape & HBR
Unknown
Radar Cross Section
Large (>1 m²)

Expand to show TLE details & history

TLE from 9 hours ago
0 STARLINK-34252
1 64330U 25124P   25182.16668981 -.01117281  00000-0 -20864-1 0  9997
2 64330  43.0001 107.1689 0001603 282.2151 152.7353 15.50882382  4360
Epoch: 2025-07-01T04:00Z
TLE epoch observation values (Epoch: 2025-07-01T04:00:01.999Z)
Latitude
41.35073°
Longitude
-162.5009°
Altitude
417.856 km
Speed
7.666 km/s
True Right ascension
11h 47m 53s
True Declination
41° 10' 18"
Sunlit
Object was in daylight at epoch
Visualization orbit readout
Latitude
33.77323°
Longitude
-100.11242°
Altitude
419.263 km
Speed
7.664 km/s
Apparent Right ascension
14h 39m 23s
Apparent Declination
-1° 48' 55"
Sunlit
Object is in full shadow
Visualization observer readout
Local Sidereal Time
01:08:39
Azimuth
325.813° NNW
Elevation
-46.688°
Doppler factor
1
Orbital elements
Apogee altitude
417.202 km
Perigee altitude
415.024 km
Semi-major axis
6,794.25 km
Eccentricity
0.00016
Inclination
43.0001°
RAAN
107.1689°
Arg. of periapsis
282.2151°
True anomaly
Unknown
Mean anomaly
152.7353°
Eccentric anomaly
Unknown
Mean motion
3.87553 °/min
Orbital period
92.89 mins
BSTAR
-0.020864
Loading maneuver chart data...
Loading SW <> Apogee altitude chart data...
Loading historical data...
Loading historical data...
Loading historical data...
Loading historical data...
Loading historical data...
Loading historical data...
Loading historical data...

STARLINK-34252 Visibility forecast

Observer location: undefined°, undefined°

Span
Click to sort rows by Start time (UTC) header in descending order
Start Az.
Max El. time (UTC)
Max El. Az.
Max El.
End time (UTC)
End Az.
6 mins2025-07-01 22:26:42.886Z223.603° SW2025-07-01 22:29:42.886Z158.278° S33.203°2025-07-01 22:32:42.886Z82.784° E
4 mins2025-07-02 00:05:42.886Z278.492° WNW2025-07-02 00:07:42.886Z25.571° NE38.701°2025-07-02 00:09:42.886Z66.425° ENE
4 mins2025-07-02 01:43:42.886Z304.973° NW2025-07-02 01:44:42.886Z340.237° N36.878°2025-07-02 01:47:42.886Z81.789° E
5 mins2025-07-02 03:20:42.886Z277.43° WNW2025-07-02 03:22:42.886Z201.198° SSW40.521°2025-07-02 03:25:42.886Z124.98° SE
|